Tracking 18945 objects as of 20-Jan-2018
HD Live streaming from Space Station
objects crossing your sky now

FENGYUN 1C DEB

Track FENGYUN 1C DEB now!
10-day predictions


NORAD ID: 29915
Int'l Code: 1999-025HM
Perigee: 576.0 km
Apogee: 663.4 km
Inclination: 99.1 °
Period: 96.9 minutes
Semi major axis: 6990 km
RCS: 0.025 m2 (small)
Launch date: May 10, 1999
Source: People's Republic of China (PRC)
Launch site: Taiyaun Space Center, China (TSC)

Note: This is SATELLITE DEBRIS
aabbcc
Your satellite tracking list
Your tracking list is empty




NASA's NSSDC Master Catalog

Two Line Element Set (TLE):
1 29915U 99025HM  18019.75759241  .00003580  00000-0  41001-3 0  9995
2 29915  99.0555  44.1440 0062541  71.2168 289.5814 14.85331655585131
Source of the keplerian elements: AFSPC